Rechercher aéroport 
image banner adimage banner ad
image banner ad

DABS - Tebessa / Cheikh Larbi Tebessi

Situé à Tebessa, Algeria

ICAO - DABS, IATA - TEE

Données fournies par Airmate  

Information générale

Coordonnées: N35°25'57" E8°7'32"
Élévation : 2657 feet MSL.
 
Évalué:
Voir évaluations:
[VIEW]
Voir autres Aéroports à Tébessa Province

Données opérationnelles

Accessible au public
Heure actuelle UTC:
Heure actuelle locale:
Météo
METAR: DABS 222300Z 10012KT CAVOK 17/08 Q1024
TAF: TAF DABS 222300Z 2300/2324 10012KT CAVOK PROB40 2312/2324 FEW026TCU FEW030CB PROB30 TEMPO 2321/2324 5000 -TSRA FEW026CB
Voir NOTAMs / SUP AIP / TFR affectant cet aéroport [VIEW]
Fréquences de communication: [VIEW]

Pistes:

Identifiant RWYQFULongueur (ft)Largeur (ft)SurfaceLDA (ft)
11113°9843148ASP
29293°9843148
12124°787498
30304°787498

Coordonnées de l'aéroport

Adresse: Tebessa Algeria

Vue satellite de DABS